| time (UTC) | temp F | wind direction | speed MPH | gust MPH | rain 1hr in | rain 24hr in | rain mn in | humidity % | barometer mb |
| 20260508195016 | 67 | 113 | 1.0 | 6.0 | 0.00 | 0.01 | 0.00 | 40 | 1024.1 |
| 20260508194516 | 67 | 0.0 | 5.0 | 0.00 | 0.01 | 0.00 | 44 | 1024.2 | |
| 20260508194016 | 67 | 113 | 1.0 | 4.0 | 0.00 | 0.01 | 0.00 | 36 | 1024.2 |
| 20260508193516 | 67 | 293 | 1.0 | 2.0 | 0.00 | 0.01 | 0.00 | 39 | 1024.3 |
| 20260508193036 | 67 | 0.0 | 4.0 | 0.00 | 0.01 | 0.00 | 39 | 1024.5 | |
| 20260508192536 | 67 | 0.0 | 2.0 | 0.00 | 0.01 | 0.00 | 40 | 1024.6 | |
| 20260508192016 | 67 | 0.0 | 1.0 | 0.00 | 0.01 | 0.00 | 45 | 1024.6 | |
| 20260508191516 | 67 | 0.0 | 1.0 | 0.00 | 0.01 | 0.00 | 39 | 1024.8 | |
| 20260508191016 | 68 | 113 | 1.0 | 5.0 | 0.00 | 0.01 | 0.00 | 42 | 1025.2 |
| 20260508190536 | 67 | 293 | 1.0 | 2.0 | 0.00 | 0.01 | 0.00 | 39 | 1025.2 |
| 20260508190036 | 68 | 135 | 2.0 | 5.0 | 0.00 | 0.01 | 0.00 | 38 | 1025.3 |
| 20260508185536 | 67 | 338 | 1.0 | 6.0 | 0.00 | 0.01 | 0.00 | 42 | 1025.3 |
| 20260508185036 | 67 | 135 | 1.0 | 3.0 | 0.00 | 0.01 | 0.00 | 41 | 1025.3 |
| 20260508184516 | 67 | 338 | 1.0 | 6.0 | 0.00 | 0.01 | 0.00 | 38 | 1025.5 |
| 20260508184016 | 67 | 270 | 1.0 | 3.0 | 0.00 | 0.01 | 0.00 | 43 | 1025.5 |
| 20260508183536 | 67 | 0.0 | 1.0 | 0.00 | 0.01 | 0.00 | 42 | 1025.5 | |
| 20260508183016 | 67 | 338 | 1.0 | 4.0 | 0.00 | 0.01 | 0.00 | 39 | 1025.4 |
| 20260508182516 | 67 | 0.0 | 1.0 | 0.00 | 0.01 | 0.00 | 41 | 1025.6 | |
| 20260508182016 | 67 | 23 | 1.0 | 2.0 | 0.00 | 0.01 | 0.00 | 41 | 1025.5 |
| 20260508181516 | 67 | 0.0 | 4.0 | 0.00 | 0.01 | 0.00 | 40 | 1025.7 | |
| 20260508181016 | 67 | 135 | 1.0 | 5.0 | 0.00 | 0.01 | 0.00 | 45 | 1025.8 |
| 20260508180516 | 67 | 135 | 1.0 | 4.0 | 0.00 | 0.01 | 0.00 | 37 | 1025.9 |
| 20260508180016 | 67 | 113 | 1.0 | 4.0 | 0.00 | 0.01 | 0.00 | 37 | 1025.9 |
| 20260508175536 | 67 | 0.0 | 3.0 | 0.00 | 0.01 | 0.00 | 39 | 1026.1 | |
| 20260508175016 | 67 | 113 | 1.0 | 3.0 | 0.00 | 0.01 | 0.00 | 38 | 1026.3 |
| 20260508174515 | 67 | 135 | 2.0 | 3.0 | 0.00 | 0.01 | 0.00 | 41 | 1026.2 |
| 20260508174016 | 67 | 0.0 | 1.0 | 0.00 | 0.01 | 0.00 | 37 | 1026.2 | |
| 20260508173516 | 67 | 135 | 1.0 | 5.0 | 0.00 | 0.01 | 0.00 | 39 | 1026.3 |
| 20260508173016 | 67 | 248 | 1.0 | 3.0 | 0.00 | 0.01 | 0.00 | 43 | 1026.4 |
| 20260508172536 | 67 | 135 | 1.0 | 3.0 | 0.00 | 0.01 | 0.00 | 40 | 1026.4 |
| 20260508172016 | 67 | 135 | 2.0 | 5.0 | 0.00 | 0.01 | 0.00 | 44 | 1026.5 |
| 20260508171515 | 67 | 135 | 1.0 | 3.0 | 0.00 | 0.01 | 0.00 | 45 | 1026.7 |
| 20260508171016 | 67 | 270 | 1.0 | 3.0 | 0.00 | 0.01 | 0.00 | 46 | 1026.8 |
| 20260508170536 | 67 | 135 | 2.0 | 6.0 | 0.00 | 0.02 | 0.00 | 39 | 1026.9 |
| 20260508170016 | 67 | 135 | 1.0 | 3.0 | 0.00 | 0.02 | 0.00 | 39 | 1027.0 |
| 20260508165516 | 67 | 135 | 1.0 | 5.0 | 0.00 | 0.02 | 0.00 | 37 | 1027.1 |
| 20260508165036 | 67 | 0.0 | 1.0 | 0.00 | 0.02 | 0.00 | 38 | 1027.1 | |
| 20260508164516 | 67 | 135 | 1.0 | 7.0 | 0.00 | 0.02 | 0.00 | 47 | 1027.2 |
| 20260508164016 | 67 | 135 | 2.0 | 7.0 | 0.00 | 0.02 | 0.00 | 36 | 1027.3 |
| 20260508163516 | 68 | 135 | 1.0 | 4.0 | 0.00 | 0.02 | 0.00 | 38 | 1027.3 |
| 20260508163016 | 67 | 135 | 1.0 | 4.0 | 0.00 | 0.02 | 0.00 | 36 | 1027.4 |
| 20260508162516 | 67 | 338 | 1.0 | 3.0 | 0.00 | 0.02 | 0.00 | 39 | 1027.4 |
| 20260508162016 | 67 | 135 | 1.0 | 2.0 | 0.00 | 0.02 | 0.00 | 40 | 1027.6 |
| 20260508161516 | 66 | 225 | 1.0 | 3.0 | 0.00 | 0.02 | 0.00 | 39 | 1027.6 |
| 20260508161015 | 66 | 0.0 | 2.0 | 0.00 | 0.02 | 0.00 | 33 | 1027.6 | |
| 20260508160536 | 66 | 0.0 | 1.0 | 0.00 | 0.02 | 0.00 | 36 | 1027.6 | |
| 20260508160037 | 66 | 0.0 | 1.0 | 0.00 | 0.02 | 0.00 | 43 | 1027.6 | |
| 20260508155516 | 66 | 0.0 | 1.0 | 0.00 | 0.02 | 0.00 | 46 | 1027.8 | |
| 20260508155015 | 66 | 0.0 | 1.0 | 0.00 | 0.02 | 0.00 | 39 | 1027.8 | |
| 20260508154516 | 67 | 0.0 | 1.0 | 0.00 | 0.02 | 0.00 | 37 | 1027.9 | |
| 20260508154015 | 67 | 0.0 | 1.0 | 0.00 | 0.02 | 0.00 | 43 | 1027.9 | |
| 20260508153536 | 67 | 0.0 | 1.0 | 0.00 | 0.02 | 0.00 | 38 | 1027.9 | |
| 20260508153036 | 66 | 0.0 | 1.0 | 0.00 | 0.02 | 0.00 | 37 | 1027.9 | |
| 20260508152516 | 65 | 158 | 1.0 | 3.0 | 0.00 | 0.02 | 0.00 | 38 | 1028.0 |
| 20260508152016 | 65 | 158 | 2.0 | 5.0 | 0.00 | 0.02 | 0.00 | 44 | 1028.1 |
| 20260508151516 | 65 | 135 | 1.0 | 3.0 | 0.00 | 0.02 | 0.00 | 40 | 1028.0 |
| 20260508151016 | 64 | 0.0 | 1.0 | 0.00 | 0.02 | 0.00 | 47 | 1028.1 | |
| 20260508150516 | 64 | 0.0 | 1.0 | 0.00 | 0.02 | 0.00 | 46 | 1028.1 | |
| 20260508150056 | 64 | 0.0 | 1.0 | 0.00 | 0.02 | 0.00 | 45 | 1028.1 | |
| 20260508145516 | 65 | 0.0 | 1.0 | 0.00 | 0.02 | 0.00 | 44 | 1028.1 | |
| 20260508145019 | 65 | 135 | 1.0 | 3.0 | 0.00 | 0.02 | 0.00 | 50 | 1028.1 |
| 20260508144536 | 65 | 135 | 1.0 | 3.0 | 0.00 | 0.02 | 0.00 | 44 | 1028.1 |
| 20260508144015 | 64 | 0.0 | 1.0 | 0.00 | 0.02 | 0.00 | 50 | 1028.0 | |
| 20260508143535 | 64 | 158 | 1.0 | 4.0 | 0.00 | 0.02 | 0.00 | 52 | 1028.0 |
| 20260508143016 | 64 | 135 | 1.0 | 4.0 | 0.00 | 0.02 | 0.00 | 54 | 1027.9 |
| 20260508142516 | 63 | 0.0 | 1.0 | 0.00 | 0.02 | 0.00 | 63 | 1027.9 | |
| 20260508142016 | 62 | 0.0 | 2.0 | 0.00 | 0.02 | 0.00 | 54 | 1027.9 | |
| 20260508141516 | 62 | 0.0 | 1.0 | 0.00 | 0.02 | 0.00 | 56 | 1027.9 | |
| 20260508141016 | 62 | 0.0 | 1.0 | 0.00 | 0.02 | 0.00 | 60 | 1027.9 | |
| 20260508140515 | 61 | 0.0 | 2.0 | 0.00 | 0.02 | 0.00 | 57 | 1027.8 | |
| 20260508140016 | 61 | 0.0 | 1.0 | 0.00 | 0.02 | 0.00 | 61 | 1027.8 | |
| 20260508135515 | 61 | 0.0 | 1.0 | 0.00 | 0.02 | 0.00 | 68 | 1027.9 | |
| 20260508135036 | 61 | 0.0 | 2.0 | 0.00 | 0.02 | 0.00 | 69 | 1027.9 | |
| 20260508134516 | 60 | 0.0 | 2.0 | 0.00 | 0.02 | 0.00 | 70 | 1027.9 | |
| 20260508134020 | 59 | 0.0 | 1.0 | 0.00 | 0.02 | 0.00 | 78 | 1027.9 | |
| 20260508133516 | 59 | 0.0 | 2.0 | 0.00 | 0.02 | 0.00 | 75 | 1027.9 | |
| 20260508133016 | 58 | 0.0 | 1.0 | 0.00 | 0.02 | 0.00 | 78 | 1027.9 | |
| 20260508132516 | 58 | 0.0 | 1.0 | 0.00 | 0.02 | 0.00 | 76 | 1028.0 | |
| 20260508132016 | 58 | 0.0 | 0.0 | 0.00 | 0.02 | 0.00 | 80 | 1027.9 | |
| 20260508131516 | 57 | 0.0 | 1.0 | 0.00 | 0.02 | 0.00 | 78 | 1027.9 | |
| 20260508131016 | 57 | 0.0 | 1.0 | 0.00 | 0.02 | 0.00 | 84 | 1027.9 | |
| 20260508130515 | 56 | 0.0 | 1.0 | 0.00 | 0.02 | 0.00 | 84 | 1027.8 | |
| 20260508130015 | 55 | 0.0 | 1.0 | 0.00 | 0.02 | 0.00 | 88 | 1027.8 | |
| 20260508125516 | 54 | 0.0 | 1.0 | 0.00 | 0.02 | 0.00 | 91 | 1027.7 | |
| 20260508125016 | 53 | 0.0 | 1.0 | 0.00 | 0.02 | 0.00 | 90 | 1027.7 | |
| 20260508124516 | 52 | 0.0 | 1.0 | 0.00 | 0.02 | 0.00 | 93 | 1027.7 | |
| 20260508124015 | 51 | 0.0 | 1.0 | 0.00 | 0.02 | 0.00 | 95 | 1027.6 | |
| 20260508123516 | 50 | 0.0 | 0.0 | 0.00 | 0.02 | 0.00 | 96 | 1027.5 | |
| 20260508123016 | 50 | 0.0 | 0.0 | 0.00 | 0.02 | 0.00 | 98 | 1027.4 | |
| 20260508122516 | 49 | 0.0 | 0.0 | 0.00 | 0.02 | 0.00 | 98 | 1027.3 | |
| 20260508122016 | 48 | 0.0 | 0.0 | 0.00 | 0.02 | 0.00 | 98 | 1027.3 | |
| 20260508121516 | 48 | 0.0 | 0.0 | 0.00 | 0.02 | 0.00 | 98 | 1027.3 | |
| 20260508121016 | 47 | 0.0 | 0.0 | 0.00 | 0.02 | 0.00 | 98 | 1027.2 | |
| 20260508120516 | 46 | 0.0 | 0.0 | 0.00 | 0.02 | 0.00 | 97 | 1027.2 | |
| 20260508120016 | 45 | 0.0 | 0.0 | 0.00 | 0.02 | 0.00 | 97 | 1027.0 | |
| 20260508115516 | 44 | 0.0 | 0.0 | 0.00 | 0.02 | 0.00 | 97 | 1027.0 | |
| 20260508115015 | 44 | 0.0 | 0.0 | 0.00 | 0.02 | 0.00 | 97 | 1026.9 | |
| 20260508114515 | 43 | 0.0 | 0.0 | 0.00 | 0.02 | 0.00 | 97 | 1026.8 | |
| 20260508114015 | 43 | 0.0 | 0.0 | 0.00 | 0.02 | 0.00 | 97 | 1026.7 | |
| 20260508113515 | 42 | 0.0 | 0.0 | 0.00 | 0.02 | 0.00 | 97 | 1026.7 | |
| 20260508113036 | 42 | 0.0 | 0.0 | 0.00 | 0.02 | 0.00 | 97 | 1026.6 | |
| 20260508112516 | 42 | 0.0 | 0.0 | 0.00 | 0.02 | 0.00 | 97 | 1026.5 | |
| 20260508112036 | 41 | 0.0 | 0.0 | 0.00 | 0.02 | 0.00 | 96 | 1026.3 | |
| 20260508111515 | 41 | 0.0 | 0.0 | 0.00 | 0.02 | 0.00 | 96 | 1026.2 | |
| 20260508111016 | 41 | 0.0 | 0.0 | 0.00 | 0.02 | 0.00 | 96 | 1026.2 | |
| 20260508110516 | 41 | 0.0 | 0.0 | 0.00 | 0.02 | 0.00 | 96 | 1026.2 | |
| 20260508110015 | 40 | 0.0 | 0.0 | 0.00 | 0.03 | 0.00 | 96 | 1026.0 | |
| 20260508105515 | 40 | 0.0 | 0.0 | 0.00 | 0.03 | 0.00 | 96 | 1026.0 | |
| 20260508105016 | 40 | 0.0 | 0.0 | 0.00 | 0.03 | 0.00 | 96 | 1025.8 | |
| 20260508104515 | 40 | 0.0 | 0.0 | 0.00 | 0.03 | 0.00 | 96 | 1025.7 | |
| 20260508104016 | 40 | 0.0 | 0.0 | 0.00 | 0.04 | 0.00 | 96 | 1025.7 | |
| 20260508103516 | 40 | 0.0 | 0.0 | 0.00 | 0.04 | 0.00 | 96 | 1025.5 | |
| 20260508103036 | 40 | 0.0 | 0.0 | 0.00 | 0.08 | 0.00 | 95 | 1025.5 | |
| 20260508102515 | 40 | 0.0 | 0.0 | 0.00 | 0.14 | 0.00 | 95 | 1025.4 | |
| 20260508102016 | 40 | 0.0 | 0.0 | 0.00 | 0.19 | 0.00 | 95 | 1025.4 | |
| 20260508101515 | 40 | 0.0 | 0.0 | 0.00 | 0.23 | 0.00 | 96 | 1025.2 | |
| 20260508101056 | 40 | 0.0 | 0.0 | 0.00 | 0.26 | 0.00 | 95 | 1025.2 | |
| 20260508100515 | 40 | 0.0 | 0.0 | 0.00 | 0.33 | 0.00 | 95 | 1025.2 | |
| 20260508100015 | 40 | 0.0 | 0.0 | 0.00 | 0.41 | 0.00 | 95 | 1025.1 | |
| 20260508095521 | 40 | 0.0 | 0.0 | 0.00 | 0.54 | 0.00 | 95 | 1025.1 | |
| 20260508095015 | 40 | 0.0 | 0.0 | 0.00 | 0.61 | 0.00 | 95 | 1025.0 | |
| 20260508094516 | 41 | 0.0 | 0.0 | 0.00 | 0.72 | 0.00 | 95 | 1025.0 | |
| 20260508094015 | 41 | 0.0 | 0.0 | 0.00 | 0.76 | 0.00 | 95 | 1024.9 | |
| 20260508093556 | 41 | 0.0 | 0.0 | 0.00 | 0.90 | 0.00 | 95 | 1024.9 | |
| 20260508093015 | 41 | 0.0 | 0.0 | 0.00 | 1.03 | 0.00 | 95 | 1024.9 | |
| 20260508092516 | 41 | 0.0 | 0.0 | 0.00 | 1.18 | 0.00 | 95 | 1024.9 | |
| 20260508092035 | 41 | 0.0 | 0.0 | 0.00 | 1.20 | 0.00 | 95 | 1024.8 | |
| 20260508091515 | 41 | 0.0 | 0.0 | 0.00 | 1.22 | 0.00 | 95 | 1024.7 | |
| 20260508091035 | 41 | 0.0 | 0.0 | 0.00 | 1.23 | 0.00 | 95 | 1024.6 | |
| 20260508090536 | 41 | 0.0 | 0.0 | 0.00 | 1.23 | 0.00 | 95 | 1024.5 | |
| 20260508090035 | 41 | 0.0 | 0.0 | 0.00 | 1.23 | 0.00 | 95 | 1024.5 | |
| 20260508085536 | 42 | 0.0 | 0.0 | 0.00 | 1.24 | 0.00 | 95 | 1024.5 | |
| 20260508085015 | 42 | 0.0 | 0.0 | 0.00 | 1.24 | 0.00 | 95 | 1024.5 | |
| 20260508084515 | 42 | 0.0 | 0.0 | 0.00 | 1.24 | 0.00 | 95 | 1024.4 | |
| 20260508084015 | 42 | 0.0 | 0.0 | 0.00 | 1.24 | 0.00 | 95 | 1024.5 | |
| 20260508083515 | 42 | 0.0 | 0.0 | 0.00 | 1.24 | 0.00 | 95 | 1024.3 | |
| 20260508083036 | 42 | 0.0 | 0.0 | 0.00 | 1.24 | 0.00 | 95 | 1024.2 | |
| 20260508082515 | 42 | 0.0 | 0.0 | 0.00 | 1.24 | 0.00 | 95 | 1024.2 | |
| 20260508082015 | 42 | 0.0 | 0.0 | 0.00 | 1.24 | 0.00 | 95 | 1024.1 | |
| 20260508081515 | 43 | 0.0 | 0.0 | 0.00 | 1.24 | 0.00 | 95 | 1023.9 | |
| 20260508081035 | 43 | 0.0 | 0.0 | 0.00 | 1.24 | 0.00 | 95 | 1023.9 | |
| 20260508080515 | 43 | 0.0 | 0.0 | 0.00 | 1.24 | 0.00 | 95 | 1023.9 | |
| 20260508080015 | 43 | 0.0 | 0.0 | 0.00 | 1.24 | 0.00 | 95 | 1023.9 | |
| 20260508075515 | 43 | 0.0 | 0.0 | 0.00 | 1.24 | 0.00 | 95 | 1023.9 | |
| 20260508075015 | 43 | 0.0 | 0.0 | 0.00 | 1.24 | 0.00 | 95 | 1023.9 | |
| 20260508074515 | 44 | 0.0 | 0.0 | 0.00 | 1.24 | 0.00 | 95 | 1023.8 | |
| 20260508074015 | 44 | 0.0 | 0.0 | 0.00 | 1.24 | 0.00 | 95 | 1023.8 | |
| 20260508073515 | 44 | 0.0 | 0.0 | 0.00 | 1.24 | 0.00 | 95 | 1023.9 | |
| 20260508073015 | 44 | 0.0 | 0.0 | 0.00 | 1.24 | 0.00 | 95 | 1023.9 | |
| 20260508072535 | 44 | 0.0 | 0.0 | 0.00 | 1.24 | 0.00 | 95 | 1023.8 | |
| 20260508072015 | 44 | 0.0 | 0.0 | 0.00 | 1.24 | 0.00 | 95 | 1023.8 | |
| 20260508071515 | 44 | 0.0 | 0.0 | 0.00 | 1.24 | 0.00 | 95 | 1023.8 | |
| 20260508071015 | 44 | 0.0 | 0.0 | 0.00 | 1.24 | 0.00 | 95 | 1023.7 | |
| 20260508070515 | 44 | 0.0 | 0.0 | 0.00 | 1.24 | 0.00 | 95 | 1023.8 | |
| 20260508070015 | 44 | 0.0 | 0.0 | 0.00 | 1.24 | 0.00 | 95 | 1023.7 | |
| 20260508065515 | 44 | 0.0 | 0.0 | 0.00 | 1.24 | 0.00 | 95 | 1023.6 | |
| 20260508065015 | 44 | 0.0 | 0.0 | 0.00 | 1.24 | 0.00 | 95 | 1023.6 | |
| 20260508064515 | 44 | 0.0 | 0.0 | 0.00 | 1.24 | 0.00 | 95 | 1023.7 | |
| 20260508064015 | 44 | 0.0 | 0.0 | 0.00 | 1.24 | 0.00 | 95 | 1023.6 | |
| 20260508063515 | 44 | 0.0 | 0.0 | 0.00 | 1.24 | 0.00 | 95 | 1023.4 | |
| 20260508063035 | 45 | 0.0 | 0.0 | 0.00 | 1.24 | 0.00 | 95 | 1023.4 | |
| 20260508062515 | 45 | 0.0 | 0.0 | 0.00 | 1.24 | 0.00 | 95 | 1023.5 | |
| 20260508062015 | 45 | 0.0 | 0.0 | 0.00 | 1.24 | 0.00 | 95 | 1023.2 | |
| 20260508061517 | 45 | 0.0 | 0.0 | 0.00 | 1.24 | 0.00 | 95 | 1023.3 | |
| 20260508061015 | 45 | 0.0 | 0.0 | 0.00 | 1.24 | 0.00 | 95 | 1023.2 | |
| 20260508060515 | 45 | 0.0 | 0.0 | 0.00 | 1.24 | 0.00 | 95 | 1023.2 | |
| 20260508060035 | 45 | 0.0 | 0.0 | 0.00 | 1.24 | 0.00 | 95 | 1023.1 | |
| 20260508055515 | 45 | 0.0 | 0.0 | 0.00 | 1.24 | 0.00 | 95 | 1023.2 | |
| 20260508055015 | 45 | 0.0 | 0.0 | 0.00 | 1.24 | 0.00 | 95 | 1023.2 | |
| 20260508054515 | 46 | 0.0 | 0.0 | 0.00 | 1.24 | 0.00 | 95 | 1023.2 | |
| 20260508054036 | 46 | 0.0 | 0.0 | 0.00 | 1.24 | 0.00 | 95 | 1023.2 | |
| 20260508053515 | 46 | 0.0 | 0.0 | 0.00 | 1.24 | 0.00 | 95 | 1023.2 | |
| 20260508053015 | 46 | 0.0 | 0.0 | 0.00 | 1.24 | 0.00 | 95 | 1023.2 | |
| 20260508052535 | 46 | 0.0 | 0.0 | 0.00 | 1.24 | 0.00 | 95 | 1023.1 | |
| 20260508052015 | 46 | 0.0 | 0.0 | 0.00 | 1.24 | 0.00 | 95 | 1023.1 | |
| 20260508051515 | 46 | 0.0 | 0.0 | 0.00 | 1.24 | 0.00 | 95 | 1023.1 | |
| 20260508051015 | 46 | 0.0 | 0.0 | 0.00 | 1.24 | 0.00 | 95 | 1023.1 | |
| 20260508050515 | 46 | 0.0 | 0.0 | 0.00 | 1.24 | 0.00 | 95 | 1023.1 | |
| 20260508050015 | 47 | 0.0 | 0.0 | 0.00 | 1.24 | 0.00 | 95 | 1023.0 | |
| 20260508045515 | 47 | 0.0 | 0.0 | 0.00 | 1.24 | 0.00 | 95 | 1023.1 | |
| 20260508045015 | 47 | 0.0 | 0.0 | 0.00 | 1.24 | 0.00 | 95 | 1023.1 | |
| 20260508044515 | 47 | 0.0 | 0.0 | 0.00 | 1.24 | 0.00 | 95 | 1023.1 | |
| 20260508044015 | 47 | 0.0 | 0.0 | 0.00 | 1.24 | 0.00 | 95 | 1023.0 | |
| 20260508043515 | 47 | 0.0 | 0.0 | 0.00 | 1.24 | 0.00 | 95 | 1022.9 | |
| 20260508043015 | 47 | 0.0 | 0.0 | 0.00 | 1.24 | 0.00 | 95 | 1023.0 | |
| 20260508042535 | 47 | 0.0 | 0.0 | 0.00 | 1.24 | 0.00 | 95 | 1023.0 | |
| 20260508042015 | 47 | 0.0 | 0.0 | 0.00 | 1.24 | 0.00 | 95 | 1022.9 | |
| 20260508041515 | 47 | 0.0 | 0.0 | 0.00 | 1.24 | 0.00 | 95 | 1023.0 | |
| 20260508041015 | 47 | 0.0 | 0.0 | 0.00 | 1.24 | 0.00 | 95 | 1022.9 | |
| 20260508040515 | 47 | 0.0 | 0.0 | 0.00 | 1.24 | 0.00 | 95 | 1023.0 | |
| 20260508040015 | 48 | 0.0 | 0.0 | 0.00 | 1.24 | 1.24 | 95 | 1022.8 | |
| 20260508035516 | 47 | 0.0 | 0.0 | 0.00 | 1.24 | 1.24 | 95 | 1022.7 | |
| 20260508035036 | 47 | 0.0 | 0.0 | 0.00 | 1.24 | 1.24 | 95 | 1022.5 | |
| 20260508034516 | 47 | 0.0 | 0.0 | 0.00 | 1.24 | 1.24 | 95 | 1022.5 | |
| 20260508034016 | 47 | 0.0 | 0.0 | 0.00 | 1.24 | 1.24 | 95 | 1022.6 | |
| 20260508033516 | 47 | 0.0 | 0.0 | 0.00 | 1.24 | 1.24 | 95 | 1022.6 | |
| 20260508033016 | 47 | 0.0 | 0.0 | 0.00 | 1.24 | 1.24 | 95 | 1022.6 | |
| 20260508032516 | 47 | 0.0 | 0.0 | 0.00 | 1.24 | 1.24 | 95 | 1022.6 | |
| 20260508032016 | 47 | 0.0 | 0.0 | 0.00 | 1.24 | 1.24 | 95 | 1022.7 | |
| 20260508031516 | 47 | 0.0 | 0.0 | 0.00 | 1.24 | 1.24 | 95 | 1022.7 | |
| 20260508031016 | 47 | 0.0 | 0.0 | 0.00 | 1.24 | 1.24 | 95 | 1022.7 | |
| 20260508030516 | 47 | 0.0 | 0.0 | 0.00 | 1.24 | 1.24 | 94 | 1022.5 | |
| 20260508030036 | 47 | 0.0 | 0.0 | 0.00 | 1.24 | 1.24 | 94 | 1022.5 | |
| 20260508025516 | 47 | 0.0 | 0.0 | 0.00 | 1.24 | 1.24 | 94 | 1022.6 | |
| 20260508025016 | 47 | 0.0 | 0.0 | 0.00 | 1.24 | 1.24 | 94 | 1022.6 | |
| 20260508024536 | 47 | 0.0 | 0.0 | 0.00 | 1.24 | 1.24 | 94 | 1022.4 | |
| 20260508024016 | 47 | 0.0 | 0.0 | 0.00 | 1.24 | 1.24 | 94 | 1022.4 | |
| 20260508023516 | 48 | 0.0 | 0.0 | 0.00 | 1.24 | 1.24 | 94 | 1022.3 | |
| 20260508023016 | 48 | 0.0 | 0.0 | 0.00 | 1.24 | 1.24 | 94 | 1022.3 | |
| 20260508022516 | 48 | 0.0 | 0.0 | 0.00 | 1.24 | 1.24 | 94 | 1022.3 | |
| 20260508022016 | 48 | 0.0 | 0.0 | 0.00 | 1.24 | 1.24 | 94 | 1022.3 | |
| 20260508021517 | 48 | 0.0 | 0.0 | 0.00 | 1.24 | 1.24 | 93 | 1022.2 | |
| 20260508021016 | 48 | 0.0 | 0.0 | 0.00 | 1.24 | 1.24 | 93 | 1022.2 | |
| 20260508020521 | 48 | 0.0 | 0.0 | 0.00 | 1.24 | 1.24 | 93 | 1022.2 | |
| 20260508020016 | 49 | 0.0 | 0.0 | 0.00 | 1.24 | 1.24 | 93 | 1022.2 | |
| 20260508015516 | 49 | 0.0 | 0.0 | 0.00 | 1.24 | 1.24 | 93 | 1022.0 | |
| 20260508015016 | 49 | 0.0 | 0.0 | 0.00 | 1.24 | 1.24 | 93 | 1022.0 | |
| 20260508014516 | 49 | 0.0 | 0.0 | 0.00 | 1.24 | 1.24 | 93 | 1022.1 | |
| 20260508014016 | 49 | 0.0 | 0.0 | 0.00 | 1.24 | 1.24 | 93 | 1022.2 | |
| 20260508013516 | 50 | 0.0 | 0.0 | 0.00 | 1.24 | 1.24 | 93 | 1022.0 | |
| 20260508013017 | 50 | 0.0 | 0.0 | 0.00 | 1.24 | 1.24 | 93 | 1022.0 | |
| 20260508012516 | 50 | 0.0 | 0.0 | 0.00 | 1.24 | 1.24 | 93 | 1022.0 | |
| 20260508012016 | 50 | 0.0 | 0.0 | 0.00 | 1.24 | 1.24 | 93 | 1021.9 | |
| 20260508011516 | 50 | 0.0 | 0.0 | 0.00 | 1.24 | 1.24 | 93 | 1021.9 | |
| 20260508011036 | 50 | 0.0 | 0.0 | 0.00 | 1.24 | 1.24 | 93 | 1022.0 | |
| 20260508010516 | 51 | 0.0 | 0.0 | 0.00 | 1.24 | 1.24 | 93 | 1022.0 | |
| 20260508010016 | 51 | 0.0 | 0.0 | 0.00 | 1.24 | 1.24 | 93 | 1022.0 | |
| 20260508005516 | 51 | 0.0 | 0.0 | 0.00 | 1.24 | 1.24 | 92 | 1021.9 | |
| 20260508005016 | 51 | 0.0 | 0.0 | 0.00 | 1.24 | 1.24 | 92 | 1021.9 | |
| 20260508004516 | 51 | 0.0 | 0.0 | 0.00 | 1.24 | 1.24 | 92 | 1021.9 | |
| 20260508004016 | 51 | 0.0 | 0.0 | 0.00 | 1.24 | 1.24 | 92 | 1021.9 | |
| 20260508003536 | 51 | 0.0 | 0.0 | 0.00 | 1.24 | 1.24 | 92 | 1021.8 | |
| 20260508003016 | 51 | 0.0 | 0.0 | 0.00 | 1.24 | 1.24 | 92 | 1021.7 | |
| 20260508002516 | 51 | 0.0 | 0.0 | 0.00 | 1.24 | 1.24 | 92 | 1021.6 | |
| 20260508002016 | 51 | 0.0 | 0.0 | 0.00 | 1.24 | 1.24 | 92 | 1021.5 | |
| 20260508001516 | 52 | 0.0 | 0.0 | 0.00 | 1.24 | 1.24 | 91 | 1021.4 | |
| 20260508001016 | 52 | 0.0 | 0.0 | 0.00 | 1.24 | 1.24 | 92 | 1021.3 | |
| 20260508000516 | 52 | 0.0 | 0.0 | 0.00 | 1.24 | 1.24 | 91 | 1021.2 | |
| 20260508000016 | 52 | 0.0 | 0.0 | 0.00 | 1.24 | 1.24 | 90 | 1021.1 | |
| 20260507235516 | 52 | 0.0 | 0.0 | 0.00 | 1.24 | 1.24 | 90 | 1021.1 | |
| 20260507235016 | 52 | 0.0 | 0.0 | 0.00 | 1.24 | 1.24 | 91 | 1021.1 | |
| 20260507234516 | 52 | 0.0 | 0.0 | 0.00 | 1.24 | 1.24 | 91 | 1020.9 | |
| 20260507234016 | 52 | 0.0 | 0.0 | 0.00 | 1.24 | 1.24 | 90 | 1020.7 | |
| 20260507233516 | 52 | 0.0 | 0.0 | 0.00 | 1.24 | 1.24 | 90 | 1020.5 | |
| 20260507233016 | 52 | 0.0 | 0.0 | 0.00 | 1.24 | 1.24 | 90 | 1020.5 | |
| 20260507232516 | 52 | 0.0 | 1.0 | 0.00 | 1.24 | 1.24 | 90 | 1020.4 | |
| 20260507232016 | 52 | 0.0 | 0.0 | 0.00 | 1.24 | 1.24 | 89 | 1020.4 | |
| 20260507231516 | 52 | 0.0 | 0.0 | 0.00 | 1.24 | 1.24 | 89 | 1020.3 | |
| 20260507231016 | 52 | 0.0 | 2.0 | 0.00 | 1.24 | 1.24 | 89 | 1020.7 | |
| 20260507230516 | 53 | 0.0 | 2.0 | 0.00 | 1.24 | 1.24 | 89 | 1020.8 | |
| 20260507230016 | 53 | 0.0 | 1.0 | 0.00 | 1.24 | 1.24 | 90 | 1020.6 | |
| 20260507225516 | 53 | 0.0 | 1.0 | 0.00 | 1.24 | 1.24 | 90 | 1020.5 | |
| 20260507225016 | 53 | 0.0 | 1.0 | 0.00 | 1.24 | 1.24 | 89 | 1020.2 | |
| 20260507224516 | 53 | 0.0 | 1.0 | 0.00 | 1.24 | 1.24 | 89 | 1020.3 | |
| 20260507224016 | 53 | 0.0 | 2.0 | 0.00 | 1.24 | 1.24 | 89 | 1020.2 | |
| 20260507223516 | 53 | 0.0 | 1.0 | 0.00 | 1.24 | 1.24 | 89 | 1020.2 | |
| 20260507223016 | 53 | 0.0 | 2.0 | 0.00 | 1.24 | 1.24 | 89 | 1020.3 | |
| 20260507222516 | 53 | 0.0 | 1.0 | 0.00 | 1.24 | 1.24 | 90 | 1020.3 | |
| 20260507222016 | 53 | 0.0 | 2.0 | 0.01 | 1.24 | 1.24 | 90 | 1020.3 | |
| 20260507221516 | 53 | 0.0 | 1.0 | 0.01 | 1.24 | 1.24 | 90 | 1020.3 | |
| 20260507221016 | 53 | 0.0 | 1.0 | 0.01 | 1.24 | 1.24 | 89 | 1020.3 | |
| 20260507220516 | 53 | 0.0 | 0.0 | 0.01 | 1.24 | 1.24 | 90 | 1020.4 | |
| 20260507220016 | 53 | 0.0 | 0.0 | 0.01 | 1.24 | 1.24 | 90 | 1020.2 | |
| 20260507215516 | 53 | 0.0 | 0.0 | 0.01 | 1.24 | 1.24 | 90 | 1020.2 | |
| 20260507215016 | 53 | 0.0 | 0.0 | 0.01 | 1.24 | 1.24 | 89 | 1020.2 | |
| 20260507214521 | 53 | 0.0 | 0.0 | 0.01 | 1.24 | 1.24 | 89 | 1020.1 | |
| 20260507214016 | 54 | 0.0 | 0.0 | 0.01 | 1.24 | 1.24 | 88 | 1020.2 | |
| 20260507213516 | 54 | 0.0 | 0.0 | 0.01 | 1.24 | 1.24 | 88 | 1020.3 | |
| 20260507213016 | 54 | 0.0 | 0.0 | 0.01 | 1.24 | 1.24 | 87 | 1020.3 | |
| 20260507212516 | 54 | 0.0 | 0.0 | 0.01 | 1.24 | 1.24 | 85 | 1020.1 | |
| 20260507212016 | 54 | 0.0 | 0.0 | 0.00 | 1.23 | 1.23 | 83 | 1020.3 | |
| 20260507211516 | 54 | 0.0 | 0.0 | 0.00 | 1.23 | 1.23 | 84 | 1020.4 | |
| 20260507211016 | 54 | 0.0 | 2.0 | 0.00 | 1.23 | 1.23 | 84 | 1020.3 | |
| 20260507210516 | 54 | 0.0 | 1.0 | 0.00 | 1.23 | 1.23 | 86 | 1020.4 | |
| 20260507210016 | 54 | 0.0 | 0.0 | 0.00 | 1.23 | 1.23 | 86 | 1020.6 | |
| 20260507205516 | 53 | 0.0 | 0.0 | 0.00 | 1.23 | 1.23 | 85 | 1020.7 | |
| 20260507205016 | 54 | 0.0 | 1.0 | 0.00 | 1.23 | 1.23 | 86 | 1020.5 | |
| 20260507204536 | 54 | 0.0 | 3.0 | 0.00 | 1.23 | 1.23 | 84 | 1020.6 | |
| 20260507204016 | 54 | 0.0 | 0.0 | 0.00 | 1.23 | 1.23 | 85 | 1020.5 | |
| 20260507203516 | 54 | 0.0 | 1.0 | 0.00 | 1.23 | 1.23 | 87 | 1020.5 | |
| 20260507203021 | 54 | 0.0 | 1.0 | 0.00 | 1.23 | 1.23 | 87 | 1020.5 | |
| 20260507202516 | 53 | 0.0 | 1.0 | 0.00 | 1.23 | 1.23 | 87 | 1020.6 | |
| 20260507202016 | 54 | 0.0 | 0.0 | 0.00 | 1.23 | 1.23 | 88 | 1020.8 | |
| 20260507201536 | 53 | 0.0 | 1.0 | 0.00 | 1.23 | 1.23 | 88 | 1020.9 | |
| 20260507201016 | 53 | 0.0 | 0.0 | 0.00 | 1.23 | 1.23 | 88 | 1021.0 | |
| 20260507200516 | 54 | 0.0 | 0.0 | 0.00 | 1.23 | 1.23 | 87 | 1020.8 | |
| 20260507200016 | 54 | 0.0 | 1.0 | 0.00 | 1.23 | 1.23 | 86 | 1020.7 | |
| 20260507195536 | 54 | 0.0 | 0.0 | 0.00 | 1.23 | 1.23 | 87 | 1020.7 |